Terminal Aerodrome Forecast
Issued by NWS Milwaukee/Sullivan, WI

Home | Current Version | Previous Version | Text Only | Print | Product List | Glossary On
Versions: 1 2 3 4 5 6 7 8 9 10 11 12 13 14 15 16 17 18 19 20 21 22 23 24 25 26 27 28 29 30 31 32 33 34 35 36 37 38 39 40 41 42 43 44 45 46 47 48 49 50
438
FTUS43 KMKX 052337
TAFMKE
TAF
KMKE 052337Z 0600/0706 28004KT P6SM BKN120
     FM061300 24007KT P6SM OVC045
     FM061800 24010KT P6SM SCT035 SCT200
     FM070300 23009KT P6SM BKN100=

USA.gov is the U.S. government's official web portal to all federal, state and local government web resources and services.